Home > Time Zones > World Clock > Weather > Italy > Rome > Past weeks

Flag for Italy Weather past 2 weeks in Rome, Italy

Now
39 °F

Clear.


Feels Like: 39 °F
Forecast: 45 / 60 °F
Wind: 2 mph from Northeast

Location: Rome / Ciampino

Current Time: Feb 27, 2015 at 5:23:54 AM

Latest Report: Feb 27, 2015 at 4:15 AM


Visibility: 10 mi

Pressure: 29.80 "Hg

Humidity: 93%

Dew point: 37 °F

Location of RomeLocation

Historic Weather in Rome — Graph

°F

Rome temperature yesterday

Maximum temperature yesterday: 57 °F (at 2:15 PM)
Minimum temperature yesterday: 45 °F (at 2:45 AM)
Average temperature yesterday: 50 °F

Past Weeks' High & Low Weather Summary

 TemperatureHumidityPressure
High63 °F (Feb 17, 2:15 PM)100% (Feb 12, 3:45 AM)30.48 "Hg (Feb 12, 3:45 AM)
Low34 °F (Feb 20, 5:45 AM)34% (Feb 17, 4:45 PM)29.33 "Hg (Feb 22, 1:45 PM)
Average49 °F74%29.93 "Hg
* Reported Feb 12 3:15 AM — Feb 27 3:45 AM, Rome, Weather by CustomWeather, © 2015

Note: Actual official high and low records may vary slightly from our data, if they occured in-between our weather recording intervals... More about our weather records

Advertising

Rome weather history for previous 24 hours

 ConditionsComfort  
Time TempWeatherWind HumidityBarometerVisibility
3:45 AM
Fri, Feb 27
39 °FClear.5 mph93%29.80 "Hg10 mi
3:15 AM41 °FClear.5 mph93%29.80 "Hg10 mi
2:45 AM41 °FClear.2 mph93%29.83 "Hg10 mi
2:15 AM41 °FClear.No wind93%29.83 "Hg10 mi
1:45 AM41 °FClear.2 mph93%29.83 "Hg10 mi
1:15 AM41 °FClear.1 mph93%29.86 "Hg10 mi
12:15 AM43 °FClear.1 mph93%29.86 "Hg10 mi
11:45 PM
Thu, Feb 26
45 °FClear.No wind87%29.86 "Hg10 mi
11:15 PM45 °FClear.No wind93%29.86 "Hg10 mi
10:45 PM46 °FClear.3 mph87%29.89 "Hg10 mi
10:15 PM46 °FClear.No wind87%29.89 "Hg10 mi
9:45 PM48 °FPassing clouds.No wind82%29.89 "HgN/A
9:15 PM48 °FPassing clouds.2 mph87%29.89 "HgN/A
8:45 PM50 °FPassing clouds.3 mph82%29.89 "HgN/A
8:15 PM50 °FPassing clouds.2 mph82%29.86 "HgN/A
7:45 PM52 °FPassing clouds.2 mph77%29.86 "HgN/A
7:15 PM52 °FPassing clouds.No wind77%29.86 "HgN/A
6:45 PM52 °FPassing clouds.No wind77%29.86 "HgN/A
6:15 PM52 °FPassing clouds.No wind72%29.86 "HgN/A
5:45 PM54 °FScattered clouds.3 mph67%29.86 "HgN/A
5:15 PM54 °FScattered clouds.2 mph67%29.86 "HgN/A
4:45 PM54 °FScattered clouds.5 mph63%29.86 "HgN/A
4:15 PM54 °FScattered clouds.6 mph58%29.86 "HgN/A
3:45 PM57 °FLight rain. Scattered clouds.3 mph48%29.83 "HgN/A
3:15 PM57 °FScattered clouds.3 mph48%29.83 "HgN/A
2:45 PM57 °FScattered clouds.No wind48%29.83 "HgN/A
2:15 PM57 °FScattered clouds.No wind48%29.83 "HgN/A
1:45 PM55 °FScattered clouds.2 mph51%29.83 "HgN/A
1:15 PM55 °FScattered clouds.5 mph51%29.83 "HgN/A
12:45 PM55 °FPassing clouds.5 mph55%29.86 "HgN/A
12:15 PM54 °FScattered clouds.5 mph58%29.86 "HgN/A
11:45 AM52 °FScattered clouds.3 mph67%29.86 "HgN/A
11:15 AM52 °FScattered clouds.6 mph67%29.86 "HgN/A
10:45 AM50 °FScattered clouds.3 mph71%29.86 "HgN/A
10:15 AM50 °FScattered clouds.6 mph71%29.86 "HgN/A
9:45 AM48 °FScattered clouds.6 mph76%29.86 "HgN/A
9:15 AM46 °FScattered clouds.5 mph76%29.86 "HgN/A
8:45 AM46 °FScattered clouds.2 mph82%29.83 "HgN/A
8:15 AM46 °FScattered clouds.3 mph82%29.83 "HgN/A
7:45 AM46 °FScattered clouds.3 mph82%29.83 "HgN/A
6:45 AM46 °FPassing clouds.3 mph76%29.80 "HgN/A
6:15 AM46 °FPassing clouds.5 mph76%29.80 "HgN/A
5:45 AM45 °FPartly cloudy.3 mph81%29.77 "HgN/A
Weather by CustomWeather, © 2015

See weather overviewHow to use our weather pages